Showing default

IRIDIUM 168, 43924

Orbit data source: Space-Track

IRIDIUM 168, 43924 is a payload satellite owned by Iridium (US) in LEO that was launched on Fri, 11 Jan 2019 UTC via an FALCON 9 launch vehicle from the Air Force Western Test Range (AFWTR). Payload-class satellites include a variety of spacecraft equipped with specific instruments for various scientific and technological missions. These include communications satellites like Starlink; space stations such as the ISS; scientific satellites like the Hubble; Earth observation satellites from companies like Planet Labs, Umbra, and HawkEye 360; GPS; miniature CubeSats for education and research; and military/defense satellites.

Loading next visibility...
Identifier
43924, 2019-002C
Orbit
LEO
Last TLE update
12 hours ago
Origin
Manufacturer
NGIS SSG Gilbert
Mission
Operational Commercial Communications
Bus & Motor
ELITEBUS, Unknown motor
Mass
860 kg wet, 700 kg dry
Launch date (UTC)
2019-01-11 (6 years ago)
Launch vehicle
FALCON 9
Launch site
Air Force Western Test Range (AFWTR)
Object type
Payload
Rocket body
Debris
Shape & HBR
Trap Box + 2 Pan, 9.4 m
Radar Cross Section
14.423 m², Large (>1 m²)

Expand to show TLE details & history

TLE from 12 hours ago
0 IRIDIUM 168
1 43924U 19002C   25181.91489560  .00000052  00000-0  11396-4 0  9994
2 43924  86.3993 140.5159 0002307  85.2279 274.9180 14.34217812338628
Epoch: 2025-06-30T21:57Z
TLE epoch observation values (Epoch: 2025-06-30T21:57:26.979Z)
Latitude
-0.00007°
Longitude
-108.06438°
Altitude
780.577 km
Speed
7.464 km/s
True Right ascension
09h 22m 03s
True Declination
0° 00' 00"
Sunlit
Object was in daylight at epoch
Visualization orbit readout
Latitude
19.14315°
Longitude
70.47367°
Altitude
779.871 km
Speed
7.466 km/s
Apparent Right ascension
19h 27m 21s
Apparent Declination
-38° 04' 23"
Sunlit
Object is in full shadow
Visualization observer readout
Local Sidereal Time
22:03:59
Azimuth
209.894° SW
Elevation
4.157°
Doppler factor
1
Orbital elements
Apogee altitude
776.282 km
Perigee altitude
772.981 km
Semi-major axis
7,152.768 km
Eccentricity
0.00023
Inclination
86.3993°
RAAN
140.5159°
Arg. of periapsis
85.2279°
True anomaly
Unknown
Mean anomaly
274.918°
Eccentric anomaly
Unknown
Mean motion
3.58783 °/min
Orbital period
100.34 mins
BSTAR
0.000011396
Loading maneuver chart data...
Loading SW <> Apogee altitude chart data...
Loading historical data...
Loading historical data...
Loading historical data...
Loading historical data...
Loading historical data...
Loading historical data...
Loading historical data...

IRIDIUM 168 Visibility forecast

Observer location: undefined°, undefined°

Span
Click to sort rows by Start time (UTC) header in descending order
Start Az.
Max El. time (UTC)
Max El. Az.
Max El.
End time (UTC)
End Az.
9 mins2025-07-01 21:30:32.849Z167.215° S2025-07-01 21:35:32.849Z63.304° ENE40.692°2025-07-01 21:39:32.849Z11.001° NNE
4 mins2025-07-01 23:14:32.849Z264.138° W2025-07-01 23:16:32.849Z289.357° WNW14.007°2025-07-01 23:18:32.849Z313.449° NW
4 mins2025-07-02 08:03:32.849Z53.644° ENE2025-07-02 08:05:32.849Z80.107° E15.186°2025-07-02 08:07:32.849Z104.855° ESE
8 mins2025-07-02 09:42:32.849Z344.59° N2025-07-02 09:46:32.849Z257.825° W39.55°2025-07-02 09:50:32.849Z196.742° SSW
|